• In Netherlands
  • List of Countries
  • For 7 days
  • Water Temperature
  • Satellite Maps
  • Weather Map
  • Weather Widgets
  • user-avatar
    Login

    Hourly Weather Durres

    Today, 26 May, Friday

    Time Temperature Precipitation Wind Pressure Humidity
    00:00 +14°C° 0.3 mm 4 mps 758 mmHg 91%
    01:00 +14°C° 0 mm 4 mps 757 mmHg 91%
    02:00 +13°C° 0.2 mm 4 mps 757 mmHg 91%
    03:00 +13°C° 0.2 mm 4 mps 757 mmHg 90%
    04:00 +12°C° 0.2 mm 4 mps 757 mmHg 90%
    05:00 +14°C° 0.1 mm 4 mps 757 mmHg 86%
    06:00 +15°C° 0.1 mm 4 mps 757 mmHg 81%
    07:00 +18°C° 0 mm 4 mps 757 mmHg 76%
    08:00 +19°C° 0.1 mm 4 mps 757 mmHg 70%
    09:00 +20°C° 0.1 mm 4 mps 757 mmHg 65%
    10:00 +21°C° 0.1 mm 4 mps 757 mmHg 60%
    11:00 +21°C° 0.1 mm 4 mps 757 mmHg 59%
    12:00 +22°C° 0.1 mm 5 mps 757 mmHg 58%
    13:00 +22°C° 0.1 mm 5 mps 757 mmHg 58%
    14:00 +22°C° 0 mm 6 mps 757 mmHg 59%
    15:00 +22°C° 0 mm 6 mps 757 mmHg 60%
    16:00 +22°C° 0 mm 6 mps 757 mmHg 61%
    17:00 +20°C° 0 mm 6 mps 757 mmHg 68%
    18:00 +19°C° 0 mm 5 mps 757 mmHg 75%
    19:00 +16°C° 0 mm 5 mps 757 mmHg 82%
    20:00 +16°C° 0 mm 5 mps 758 mmHg 82%
    21:00 +17°C° 0 mm 4 mps 758 mmHg 81%
    22:00 +17°C° 0 mm 4 mps 758 mmHg 81%
    23:00 +16°C° 0 mm 3 mps 758 mmHg 81%

    Tomorrow, 27 May, Saturday

    Time Temperature Precipitation Wind Pressure Humidity
    00:00 +16°C° 0 mm 3 mps 758 mmHg 82%
    01:00 +16°C° 0 mm 3 mps 758 mmHg 82%
    02:00 +14°C° 0 mm 3 mps 758 mmHg 81%
    03:00 +14°C° 0 mm 3 mps 758 mmHg 81%
    04:00 +14°C° 0 mm 4 mps 758 mmHg 81%
    05:00 +17°C° 0 mm 3 mps 758 mmHg 75%
    06:00 +19°C° 0 mm 3 mps 759 mmHg 70%
    07:00 +20°C° 0 mm 3 mps 759 mmHg 64%
    08:00 +22°C° 0 mm 3 mps 759 mmHg 58%
    09:00 +25°C° 0 mm 4 mps 759 mmHg 52%
    10:00 +27°C° 0 mm 4 mps 759 mmHg 45%
    11:00 +27°C° 0.1 mm 4 mps 759 mmHg 45%
    12:00 +27°C° 0.1 mm 5 mps 759 mmHg 44%
    13:00 +28°C° 0.1 mm 6 mps 759 mmHg 44%
    14:00 +27°C° 0 mm 6 mps 759 mmHg 45%
    15:00 +27°C° 0 mm 7 mps 759 mmHg 47%
    16:00 +26°C° 0 mm 7 mps 759 mmHg 48%
    17:00 +23°C° 0 mm 7 mps 759 mmHg 57%
    18:00 +21°C° 0 mm 7 mps 759 mmHg 66%
    19:00 +19°C° 0 mm 6 mps 760 mmHg 75%
    20:00 +17°C° 0 mm 6 mps 760 mmHg 75%
    21:00 +17°C° 0 mm 5 mps 760 mmHg 75%
    22:00 +16°C° 0 mm 5 mps 761 mmHg 76%
    23:00 +16°C° 0 mm 5 mps 761 mmHg 75%

    Day after tomorrow, 28 May, Sunday

    Time Temperature Precipitation Wind Pressure Humidity
    00:00 +16°C° 0 mm 5 mps 761 mmHg 74%
    01:00 +15°C° 0 mm 5 mps 761 mmHg 74%
    02:00 +15°C° 0 mm 5 mps 761 mmHg 74%
    03:00 +15°C° 0 mm 5 mps 761 mmHg 73%
    04:00 +15°C° 0 mm 5 mps 761 mmHg 73%
    05:00 +16°C° 0 mm 5 mps 761 mmHg 68%
    06:00 +19°C° 0 mm 5 mps 761 mmHg 63%
    07:00 +21°C° 0 mm 5 mps 762 mmHg 58%
    08:00 +23°C° 0 mm 4 mps 762 mmHg 52%
    09:00 +26°C° 0 mm 4 mps 762 mmHg 45%
    10:00 +27°C° 0 mm 4 mps 762 mmHg 38%
    11:00 +28°C° 0 mm 4 mps 762 mmHg 37%
    12:00 +29°C° 0 mm 4 mps 762 mmHg 36%
    13:00 +29°C° 0 mm 5 mps 762 mmHg 36%
    14:00 +29°C° 0 mm 5 mps 762 mmHg 38%
    15:00 +29°C° 0 mm 6 mps 762 mmHg 39%
    16:00 +28°C° 0 mm 7 mps 762 mmHg 41%
    17:00 +26°C° 0 mm 6 mps 762 mmHg 50%
    18:00 +23°C° 0 mm 6 mps 762 mmHg 59%
    19:00 +20°C° 0 mm 6 mps 763 mmHg 68%
    20:00 +20°C° 0 mm 5 mps 763 mmHg 69%
    21:00 +19°C° 0 mm 5 mps 763 mmHg 71%
    22:00 +18°C° 0 mm 4 mps 763 mmHg 72%
    23:00 +18°C° 0 mm 4 mps 763 mmHg 72%

    29 May, Monday

    Time Temperature Precipitation Wind Pressure Humidity
    00:00 +18°C° 0 mm 4 mps 763 mmHg 73%
    01:00 +17°C° 0 mm 3 mps 763 mmHg 73%
    02:00 +17°C° 0 mm 3 mps 763 mmHg 73%
    03:00 +17°C° 0 mm 3 mps 763 mmHg 74%
    04:00 +17°C° 0 mm 3 mps 763 mmHg 74%
    05:00 +18°C° 0 mm 3 mps 763 mmHg 69%
    06:00 +20°C° 0 mm 2 mps 763 mmHg 65%
    07:00 +23°C° 0 mm 2 mps 763 mmHg 60%
    08:00 +25°C° 0 mm 2 mps 763 mmHg 54%
    09:00 +27°C° 0 mm 1 mps 763 mmHg 48%
    10:00 +29°C° 0 mm 1 mps 763 mmHg 42%
    11:00 +28°C° 0.1 mm 2 mps 762 mmHg 43%
    12:00 +28°C° 0.1 mm 2 mps 762 mmHg 44%
    13:00 +28°C° 0.1 mm 3 mps 762 mmHg 44%
    14:00 +28°C° 0.1 mm 3 mps 762 mmHg 46%
    15:00 +27°C° 0.1 mm 3 mps 761 mmHg 48%
    16:00 +27°C° 0.1 mm 3 mps 761 mmHg 51%
    17:00 +24°C° 0.1 mm 2 mps 761 mmHg 60%
    18:00 +21°C° 0.1 mm 2 mps 761 mmHg 70%
    19:00 +20°C° 0.1 mm 1 mps 761 mmHg 79%
    20:00 +19°C° 0 mm 1 mps 761 mmHg 80%
    21:00 +19°C° 0 mm 1 mps 762 mmHg 80%
    22:00 +18°C° 0 mm 1 mps 762 mmHg 81%
    23:00 +18°C° 0 mm 1 mps 762 mmHg 81%

    30 May, Tuesday

    Time Temperature Precipitation Wind Pressure Humidity
    00:00 +18°C° 0 mm 1 mps 762 mmHg 80%
    01:00 +16°C° 0 mm 1 mps 762 mmHg 80%
    02:00 +16°C° 0 mm 1 mps 761 mmHg 80%
    03:00 +15°C° 0 mm 0 mps 761 mmHg 79%
    04:00 +15°C° 0 mm 0 mps 761 mmHg 79%
    05:00 +17°C° 0 mm 0 mps 761 mmHg 72%
    06:00 +22°C° 0 mm 1 mps 762 mmHg 64%
    07:00 +24°C° 0 mm 1 mps 762 mmHg 57%
    08:00 +25°C° 0 mm 1 mps 762 mmHg 52%
    09:00 +27°C° 0 mm 1 mps 762 mmHg 47%
    10:00 +28°C° 0 mm 1 mps 762 mmHg 42%
    11:00 +28°C° 0 mm 2 mps 762 mmHg 41%
    12:00 +29°C° 0 mm 2 mps 762 mmHg 41%
    13:00 +29°C° 0 mm 3 mps 761 mmHg 40%
    14:00 +29°C° 0 mm 3 mps 761 mmHg 42%
    15:00 +28°C° 0 mm 3 mps 761 mmHg 45%
    16:00 +27°C° 0 mm 2 mps 761 mmHg 47%
    17:00 +25°C° 0 mm 2 mps 761 mmHg 57%
    18:00 +22°C° 0 mm 1 mps 761 mmHg 68%
    19:00 +20°C° 0 mm 1 mps 761 mmHg 78%
    20:00 +19°C° 0 mm 1 mps 762 mmHg 79%
    21:00 +18°C° 0 mm 1 mps 762 mmHg 80%
    22:00 +18°C° 0 mm 1 mps 762 mmHg 81%
    23:00 +18°C° 0 mm 1 mps 762 mmHg 82%

    31 May, Wednesday

    Time Temperature Precipitation Wind Pressure Humidity
    00:00 +16°C° 0 mm 1 mps 762 mmHg 82%
    01:00 +16°C° 0 mm 1 mps 762 mmHg 83%
    02:00 +16°C° 0 mm 1 mps 762 mmHg 83%
    03:00 +14°C° 0 mm 0 mps 762 mmHg 83%
    04:00 +14°C° 0 mm 0 mps 762 mmHg 83%
    05:00 +19°C° 0 mm 1 mps 762 mmHg 73%
    06:00 +22°C° 0 mm 1 mps 762 mmHg 62%
    07:00 +24°C° 0 mm 1 mps 762 mmHg 52%
    08:00 +26°C° 0 mm 1 mps 762 mmHg 49%
    09:00 +27°C° 0 mm 1 mps 762 mmHg 46%
    10:00 +28°C° 0 mm 1 mps 762 mmHg 43%
    11:00 +29°C° 0 mm 2 mps 762 mmHg 42%
    12:00 +29°C° 0 mm 2 mps 762 mmHg 41%
    13:00 +30°C° 0 mm 3 mps 762 mmHg 40%
    14:00 +29°C° 0 mm 3 mps 762 mmHg 42%
    15:00 +29°C° 0 mm 3 mps 762 mmHg 44%
    16:00 +28°C° 0 mm 2 mps 762 mmHg 46%
    17:00 +25°C° 0 mm 2 mps 762 mmHg 56%
    18:00 +23°C° 0 mm 1 mps 762 mmHg 66%
    19:00 +20°C° 0 mm 1 mps 762 mmHg 76%
    20:00 +19°C° 0 mm 1 mps 762 mmHg 78%
    21:00 +19°C° 0 mm 1 mps 762 mmHg 80%
    22:00 +16°C° 0 mm 0 mps 763 mmHg 82%
    23:00 +18°C° 0 mm 1 mps 763 mmHg 82%
    Show more